BOX618 VVTS-ZSPD

Flight info

Callsign BOX618
Flight time N/A
Altitude 33000
Route PATMA5B PATMA W12 BMT/K0867F270 W1 DAN/K0909F330 A1 IKELA/N0487F350 DCT MORTU DCT NOBAD DCT DOTMI/K0898S1070 A470 LJG B221 SHZ W58 BK BK91A
Aircraft B77L/H-SDE1E2E3FGHIJ2J3J4J5M1RWXY/LB1D1

Departure

Time 2026-05-04 08:04
Airport Tan Son Nhat International Airport (VVTS)

Arrival

Time N/A
Airport Shanghai Pudong International Airport (ZSPD)
Time Latitude Longitude Altitude Speed Heading
2026-05-04 07:49 10.81418 106.65869 42 ft 0 kts 96°
2026-05-04 07:52 10.81418 106.65867 42 ft 1 kts 96°
2026-05-04 07:52 10.81419 106.65850 42 ft 3 kts 95°
2026-05-04 07:52 10.81421 106.65829 42 ft 2 kts 95°
2026-05-04 07:53 10.81422 106.65811 41 ft 3 kts 82°
2026-05-04 07:54 10.81365 106.65777 37 ft 0 kts
2026-05-04 07:57 10.81366 106.65777 37 ft 1 kts
2026-05-04 07:57 10.81390 106.65779 40 ft 6 kts
2026-05-04 07:57 10.81452 106.65785 42 ft 12 kts
2026-05-04 07:58 10.81550 106.65794 41 ft 16 kts
2026-05-04 07:58 10.81659 106.65801 39 ft 15 kts 356°
2026-05-04 07:58 10.81737 106.65797 39 ft 9 kts 21°
2026-05-04 07:58 10.81777 106.65848 40 ft 9 kts 62°
2026-05-04 07:59 10.81803 106.65915 41 ft 11 kts 70°
2026-05-04 07:59 10.81835 106.65998 41 ft 14 kts 68°
2026-05-04 07:59 10.81874 106.66104 40 ft 18 kts 69°
2026-05-04 07:59 10.81921 106.66230 41 ft 20 kts 69°
2026-05-04 08:00 10.81972 106.66363 41 ft 20 kts 69°
2026-05-04 08:00 10.82022 106.66496 38 ft 20 kts 69°
2026-05-04 08:00 10.82072 106.66629 38 ft 20 kts 69°
2026-05-04 08:02 10.82341 106.66874 39 ft 7 kts 253°
2026-05-04 08:02 10.82336 106.66861 38 ft 0 kts 248°
2026-05-04 08:03 10.82311 106.66797 37 ft 24 kts 249°
2026-05-04 08:03 10.82183 106.66457 37 ft 85 kts 249°
2026-05-04 08:04 10.81896 106.65699 42 ft 143 kts 249°
2026-05-04 08:04 10.81478 106.64598 42 ft 189 kts 249°
2026-05-04 08:04 10.80995 106.63305 376 ft 196 kts 250°
2026-05-04 08:04 10.80511 106.62006 894 ft 196 kts 250°
2026-05-04 08:05 10.80019 106.60708 1396 ft 199 kts 248°
2026-05-04 08:05 10.79507 106.59382 1834 ft 206 kts 249°
2026-05-04 08:05 10.78968 106.57968 2086 ft 222 kts 249°
2026-05-04 08:05 10.78281 106.56523 2398 ft 230 kts 227°
2026-05-04 08:06 10.76962 106.55664 2886 ft 229 kts 189°
2026-05-04 08:06 10.75383 106.55744 3251 ft 236 kts 156°
2026-05-04 08:06 10.73927 106.56583 3423 ft 254 kts 145°
2026-05-04 08:06 10.72393 106.57587 3910 ft 263 kts 145°
2026-05-04 08:08 10.64920 106.66948 8357 ft 275 kts 69°
2026-05-04 08:08 10.65629 106.68775 8936 ft 280 kts 69°
2026-05-04 08:10 10.72039 106.85171 11769 ft 381 kts 57°
2026-05-04 08:11 10.73680 106.87313 12402 ft 387 kts 50°
2026-05-04 08:11 10.77184 106.91558 13744 ft 398 kts 51°
2026-05-04 08:11 10.78945 106.93754 14352 ft 403 kts 52°
2026-05-04 08:12 10.80711 106.95986 14993 ft 406 kts 52°
2026-05-04 08:12 10.82483 106.98240 15641 ft 410 kts 52°
2026-05-04 08:12 10.84268 107.00517 16235 ft 414 kts 52°
2026-05-04 08:12 10.86078 107.02827 16768 ft 420 kts 52°
2026-05-04 08:13 10.87910 107.05163 17353 ft 424 kts 52°
2026-05-04 08:13 10.89830 107.07441 17878 ft 425 kts 44°
2026-05-04 08:13 10.92263 107.09174 18215 ft 432 kts 30°
2026-05-04 08:13 10.94920 107.10652 18627 ft 437 kts 30°
2026-05-04 08:14 10.97567 107.12189 19163 ft 439 kts 31°
2026-05-04 08:14 11.00193 107.13784 19719 ft 440 kts 32°
2026-05-04 08:14 11.02820 107.15405 20218 ft 443 kts 32°
2026-05-04 08:16 11.22010 107.26700 23380 ft 467 kts 25°
2026-05-04 08:16 11.24977 107.28086 23726 ft 470 kts 25°
2026-05-04 08:16 11.27962 107.29469 24085 ft 473 kts 25°
2026-05-04 08:17 11.30955 107.30871 24438 ft 475 kts 25°
2026-05-04 08:17 11.33963 107.32301 24792 ft 478 kts 26°
2026-05-04 08:17 11.36975 107.33750 25143 ft 480 kts 26°
2026-05-04 08:17 11.39998 107.35217 25478 ft 483 kts 26°
2026-05-04 08:19 11.61620 107.45769 27596 ft 503 kts 26°
2026-05-04 08:19 11.64779 107.47311 27967 ft 504 kts 26°
2026-05-04 08:20 11.67955 107.48861 28242 ft 507 kts 26°
2026-05-04 08:20 11.71145 107.50419 28533 ft 509 kts 26°
2026-05-04 08:20 11.74350 107.51984 28785 ft 512 kts 26°
2026-05-04 08:20 11.77571 107.53557 29041 ft 514 kts 26°
2026-05-04 08:21 11.80804 107.55137 29347 ft 516 kts 26°
2026-05-04 08:21 11.84040 107.56718 29683 ft 516 kts 26°
2026-05-04 08:21 11.87272 107.58299 30094 ft 514 kts 25°
2026-05-04 08:21 11.90491 107.59873 30439 ft 513 kts 25°
2026-05-04 08:22 11.93707 107.61447 30790 ft 512 kts 25°
2026-05-04 08:22 11.96915 107.63016 31157 ft 511 kts 25°
2026-05-04 08:24 12.19228 107.73946 32875 ft 507 kts 25°
2026-05-04 08:24 12.22406 107.75506 32874 ft 508 kts 25°
2026-05-04 08:24 12.28802 107.78643 32889 ft 511 kts 25°
2026-05-04 08:25 12.35053 107.82028 32857 ft 514 kts 38°
2026-05-04 08:25 12.40285 107.86989 32858 ft 514 kts 45°
2026-05-04 08:27 12.61101 108.06992 32880 ft 512 kts 42°
2026-05-04 08:28 12.66869 108.11056 32883 ft 503 kts 18°
2026-05-04 08:28 12.70251 108.11930 32887 ft 501 kts
2026-05-04 08:28 12.73709 108.11993 32886 ft 494 kts 352°
2026-05-04 08:29 12.80585 108.11329 32892 ft 498 kts 353°
2026-05-04 08:31 13.08435 108.09249 32889 ft 500 kts 354°
2026-05-04 08:33 13.36048 108.07220 32886 ft 495 kts 354°
2026-05-04 08:35 13.63508 108.05172 32877 ft 496 kts 353°
2026-05-04 08:35 13.70385 108.04659 32891 ft 495 kts 353°
2026-05-04 08:37 13.94423 108.02862 32897 ft 495 kts 353°
2026-05-04 08:38 14.01319 108.02453 32911 ft 498 kts 358°
2026-05-04 08:38 14.08265 108.02952 32919 ft 501 kts
2026-05-04 08:40 14.32703 108.05139 33549 ft 504 kts
2026-05-04 08:40 14.36193 108.05435 33958 ft 502 kts
2026-05-04 08:40 14.39664 108.05729 34322 ft 500 kts
2026-05-04 08:41 14.43123 108.06024 34665 ft 498 kts
2026-05-04 08:41 14.46582 108.06319 34845 ft 500 kts
2026-05-04 08:41 14.50055 108.06616 34862 ft 501 kts
2026-05-04 08:42 14.56980 108.07208 34917 ft 498 kts
2026-05-04 08:42 14.63875 108.07798 34946 ft 497 kts
2026-05-04 08:43 14.70757 108.08388 34944 ft 496 kts
2026-05-04 08:43 14.77638 108.08976 34967 ft 496 kts
2026-05-04 08:44 14.84524 108.09567 34960 ft 497 kts
2026-05-04 08:46 15.12057 108.11885 34976 ft 497 kts
2026-05-04 08:46 15.18959 108.12469 34968 ft 498 kts
2026-05-04 08:47 15.25867 108.13055 34977 ft 498 kts
2026-05-04 08:47 15.32784 108.13640 34953 ft 499 kts
2026-05-04 08:48 15.39698 108.14226 34954 ft 498 kts
2026-05-04 08:48 15.46608 108.14811 34947 ft 498 kts
2026-05-04 08:49 15.53517 108.15396 34946 ft 498 kts
2026-05-04 08:50 15.77775 108.17455 34940 ft 503 kts
2026-05-04 08:51 15.84759 108.18049 34939 ft 504 kts
2026-05-04 08:51 15.91762 108.18646 34940 ft 505 kts
2026-05-04 08:52 15.98760 108.19243 34943 ft 504 kts
2026-05-04 08:52 16.02201 108.19858 34925 ft 504 kts 17°
2026-05-04 08:52 16.05351 108.21446 34948 ft 506 kts 33°
2026-05-04 08:53 16.08022 108.23820 34944 ft 507 kts 49°
2026-05-04 08:54 16.21713 108.45238 34940 ft 516 kts 56°
2026-05-04 08:55 16.25754 108.51498 34937 ft 525 kts 55°
2026-05-04 08:55 16.29842 108.57847 34939 ft 531 kts 56°
2026-05-04 09:01 16.73412 109.24182 34942 ft 537 kts 55°
2026-05-04 09:01 16.77591 109.30648 34937 ft 538 kts 55°
2026-05-04 09:02 16.81771 109.37127 34952 ft 538 kts 54°
2026-05-04 09:02 16.85952 109.43597 34933 ft 537 kts 54°
2026-05-04 09:03 16.90130 109.50040 34924 ft 536 kts 54°
2026-05-04 09:03 16.94301 109.56478 34934 ft 535 kts 54°
2026-05-04 09:04 16.98463 109.62913 34937 ft 534 kts 54°
2026-05-04 09:04 17.02623 109.69354 34934 ft 535 kts 54°
2026-05-04 09:05 17.06780 109.75797 34933 ft 535 kts 54°
2026-05-04 09:05 17.10939 109.82247 34942 ft 535 kts 54°
2026-05-04 09:06 17.15098 109.88704 34938 ft 535 kts 54°
2026-05-04 09:08 17.31725 110.14580 34935 ft 536 kts 54°
2026-05-04 09:08 17.35879 110.21061 34939 ft 536 kts 54°
2026-05-04 09:09 17.40006 110.27507 34940 ft 537 kts 54°
2026-05-04 09:09 17.44178 110.33996 34937 ft 538 kts 54°
2026-05-04 09:10 17.48392 110.40473 34938 ft 538 kts 54°
2026-05-04 09:10 17.52612 110.46955 34941 ft 539 kts 54°
2026-05-04 09:11 17.56825 110.53448 34939 ft 539 kts 54°
2026-05-04 09:11 17.61035 110.59950 34941 ft 539 kts 54°
2026-05-04 09:12 17.65242 110.66455 34939 ft 539 kts 54°
2026-05-04 09:14 17.82063 110.92522 34941 ft 540 kts 54°
2026-05-04 09:14 17.86266 110.99052 34944 ft 540 kts 54°
2026-05-04 09:15 17.90470 111.05589 34942 ft 540 kts 54°
2026-05-04 09:15 17.94675 111.12134 34951 ft 541 kts 54°
2026-05-04 09:17 18.13554 111.41602 34942 ft 541 kts 54°
2026-05-04 09:18 18.17751 111.48171 34942 ft 541 kts 54°
2026-05-04 09:18 18.21945 111.54742 34946 ft 541 kts 54°
2026-05-04 09:19 18.26141 111.61323 34951 ft 542 kts 54°
2026-05-04 09:19 18.30335 111.67908 34945 ft 542 kts 54°
2026-05-04 09:20 18.34530 111.74500 34947 ft 542 kts 54°
2026-05-04 09:20 18.38721 111.81094 34949 ft 542 kts 54°
2026-05-04 09:21 18.42914 111.87696 34945 ft 542 kts 54°
2026-05-04 09:21 18.47099 111.94295 34956 ft 542 kts 54°
2026-05-04 09:22 18.51280 112.00893 34951 ft 541 kts 54°
2026-05-04 09:22 18.55458 112.07493 34946 ft 541 kts 54°
2026-05-04 09:23 18.59625 112.14085 34950 ft 540 kts 54°
2026-05-04 09:23 18.63787 112.20673 34950 ft 539 kts 54°
2026-05-04 09:25 18.78133 112.48485 34952 ft 540 kts 61°
2026-05-04 09:26 18.81613 112.55498 34952 ft 539 kts 60°
2026-05-04 09:26 18.85090 112.62501 34953 ft 538 kts 61°
2026-05-04 09:27 18.88562 112.69507 34953 ft 538 kts 61°
2026-05-04 09:27 18.92027 112.76513 34953 ft 538 kts 61°
2026-05-04 09:28 18.95488 112.83518 34950 ft 538 kts 61°
2026-05-04 09:28 18.98924 112.90482 34971 ft 538 kts 61°
2026-05-04 09:29 19.02380 112.97495 34957 ft 538 kts 61°
2026-05-04 09:29 19.05837 113.04518 34955 ft 538 kts 61°
2026-05-04 09:30 19.09287 113.11535 34955 ft 538 kts 61°
2026-05-04 09:30 19.12736 113.18557 34956 ft 538 kts 61°
2026-05-04 09:31 19.16184 113.25587 34957 ft 538 kts 61°
2026-05-04 09:31 19.19629 113.32617 34959 ft 538 kts 61°
2026-05-04 09:32 19.23072 113.39653 34964 ft 539 kts 61°
2026-05-04 09:34 19.36871 113.67938 34957 ft 542 kts 61°
2026-05-04 09:34 19.40325 113.75040 34959 ft 542 kts 61°
2026-05-04 09:35 19.43755 113.82100 34957 ft 543 kts 61°
2026-05-04 09:35 19.47205 113.89211 34968 ft 543 kts 61°
2026-05-04 09:37 19.61003 114.17737 34961 ft 544 kts 61°
2026-05-04 09:38 19.64448 114.24883 34963 ft 544 kts 61°
2026-05-04 09:38 19.67893 114.32038 34959 ft 544 kts 61°
2026-05-04 09:39 19.71335 114.39193 34971 ft 544 kts 61°
2026-05-04 09:39 19.74778 114.46356 34963 ft 545 kts 62°
2026-05-04 09:40 19.78221 114.53530 34961 ft 545 kts 62°
2026-05-04 09:40 19.81660 114.60708 34964 ft 545 kts 62°
2026-05-04 09:42 19.95394 114.89462 34985 ft 545 kts 62°
2026-05-04 09:43 19.98821 114.96661 34960 ft 546 kts 61°
2026-05-04 09:43 20.02247 115.03865 34972 ft 546 kts 62°
2026-05-04 09:44 20.05666 115.11065 34968 ft 545 kts 62°
2026-05-04 09:46 20.19256 115.39779 34970 ft 543 kts 62°
2026-05-04 09:46 20.22811 115.46836 34953 ft 537 kts 50°
2026-05-04 09:47 20.25373 115.49671 34986 ft 529 kts 35°
2026-05-04 09:47 20.28447 115.51778 34984 ft 524 kts 22°
2026-05-04 09:49 20.51720 115.58025 34987 ft 524 kts
2026-05-04 09:49 20.55264 115.58962 34973 ft 525 kts
2026-05-04 09:51 20.80060 115.65510 34987 ft 523 kts
2026-05-04 09:51 20.87123 115.67374 34982 ft 522 kts
2026-05-04 09:52 20.94176 115.69238 34985 ft 522 kts
2026-05-04 09:52 21.01221 115.71101 34984 ft 521 kts
2026-05-04 09:53 21.08265 115.72966 34996 ft 522 kts
2026-05-04 09:53 21.15319 115.74835 34996 ft 523 kts
2026-05-04 09:54 21.22381 115.76708 34992 ft 523 kts
2026-05-04 09:54 21.29452 115.78586 34996 ft 524 kts
2026-05-04 09:55 21.36535 115.80469 35001 ft 525 kts
2026-05-04 09:55 21.43634 115.82358 35002 ft 526 kts
2026-05-04 09:56 21.50748 115.84252 35007 ft 527 kts
2026-05-04 09:56 21.57871 115.86152 35006 ft 527 kts
2026-05-04 09:57 21.64996 115.88054 35015 ft 528 kts
2026-05-04 09:57 21.72126 115.89959 35008 ft 528 kts
2026-05-04 09:58 21.79219 115.91856 35010 ft 528 kts
2026-05-04 09:58 21.86400 115.93779 35016 ft 528 kts
2026-05-04 10:00 22.14877 116.01423 35029 ft 528 kts
2026-05-04 10:04 22.64863 116.14918 35055 ft 530 kts
2026-05-04 10:04 22.71872 116.17650 35054 ft 543 kts 20°
2026-05-04 10:05 22.78355 116.22006 35067 ft 555 kts 32°
2026-05-04 10:05 22.84415 116.27205 35060 ft 556 kts 33°
2026-05-04 10:06 22.90507 116.32370 35060 ft 556 kts 32°
2026-05-04 10:06 22.96650 116.37469 35067 ft 556 kts 32°
2026-05-04 10:08 23.18149 116.55226 35070 ft 555 kts 32°
2026-05-04 10:08 23.24294 116.60321 35086 ft 555 kts 32°
2026-05-04 10:09 23.30438 116.65420 35074 ft 556 kts 32°
2026-05-04 10:09 23.36583 116.70527 35075 ft 556 kts 32°
2026-05-04 10:10 23.42722 116.75655 35070 ft 557 kts 33°
2026-05-04 10:10 23.48401 116.81465 35098 ft 563 kts 42°
2026-05-04 10:11 23.53781 116.87695 35076 ft 565 kts 43°
2026-05-04 10:11 23.59191 116.93920 35080 ft 566 kts 42°
2026-05-04 10:12 23.64648 117.00118 35079 ft 566 kts 41°
2026-05-04 10:12 23.70108 117.06315 35083 ft 567 kts 42°
2026-05-04 10:13 23.75570 117.12534 35080 ft 568 kts 41°
2026-05-04 10:13 23.81310 117.18426 35089 ft 566 kts 37°
2026-05-04 10:14 23.87228 117.24113 35091 ft 567 kts 36°
2026-05-04 10:16 24.10809 117.47158 35116 ft 569 kts 37°
2026-05-04 10:16 24.16527 117.53188 35103 ft 573 kts 43°
2026-05-04 10:17 24.21850 117.59628 35116 ft 575 kts 44°
2026-05-04 10:19 24.43365 117.85622 35106 ft 576 kts 43°
2026-05-04 10:19 24.48759 117.92134 35108 ft 576 kts 43°
2026-05-04 10:20 24.54150 117.98653 35108 ft 577 kts 43°
2026-05-04 10:20 24.59582 118.05126 35114 ft 575 kts 41°
2026-05-04 10:21 24.65176 118.11412 35151 ft 575 kts 41°
2026-05-04 10:21 24.70752 118.17741 35127 ft 577 kts 41°
2026-05-04 10:22 24.79119 118.27279 35120 ft 578 kts 41°
2026-05-04 10:23 24.84706 118.33644 35122 ft 578 kts 41°
2026-05-04 10:25 25.07091 118.59262 35119 ft 581 kts 41°
2026-05-04 10:25 25.12658 118.65735 35136 ft 582 kts 43°
2026-05-04 10:26 25.18109 118.72338 35128 ft 582 kts 43°
2026-05-04 10:26 25.23554 118.78948 35121 ft 582 kts 43°
2026-05-04 10:27 25.29019 118.85542 35123 ft 581 kts 43°
2026-05-04 10:27 25.34474 118.92127 35133 ft 581 kts 43°
2026-05-04 10:28 25.40004 118.98647 35129 ft 581 kts 41°